This demonstration page uses our WeatherBlox Daily Observations layout. Learn more.

Left ArrowRight Arrow

Hourly Observations for May 24, 2015

Temp ( °F °C ) Dew Point ( °F °C ) Humidity (%) Winds ( mph kmh ) Pressure ( in mb ) Visibility ( mi km ) Precip ( " mm )
12:53 am 00:53 Clear 54 12.2 48 8.9 80 80 ESE 3 6 30.27 1025 10 16 0.00 0.00
1:53 am 01:53 Clear 52 11.1 48 8.9 86 86 Calm 30.27 1025 10 16 0.00 0.00
2:53 am 02:53 Clear 53 11.7 48 8.9 83 83 Calm 30.27 1025 10 16 0.00 0.00
3:53 am 03:53 Clear 54 12.2 48 8.9 80 80 Calm 30.27 1025 10 16 0.00 0.00
4:53 am 04:53 Clear 52 11.1 49 9.4 89 89 Calm 30.27 1025 10 16 0.00 0.00
5:53 am 05:53 Clear 53 11.7 49 9.4 86 86 Calm 30.27 1025 10 16 0.00 0.00
6:53 am 06:53 Sunny 54 12.2 50 10 87 87 Calm 30.28 1026 10 16 0.00 0.00
7:53 am 07:53 Sunny 62 16.7 52 11.1 70 70 ENE 3 6 30.29 1026 10 16 0.00 0.00
8:53 am 08:53 Sunny 69 20.6 51 10.6 53 53 VRB 3 6 30.29 1026 10 16 0.00 0.00
9:53 am 09:53 Sunny 72 22.2 55 12.8 55 55 VRB 3 6 30.29 1026 10 16 0.00 0.00
10:53 am 10:53 Mostly Cloudy 77 25 54 12.2 45 45 VRB 6 9 30.28 1025 10 16 0.00 0.00
11:53 am 11:53 Mostly Cloudy 77 25 51 10.6 40 40 SSW 9 15 30.27 1025 10 16 0.00 0.00
12:53 pm 12:53 Sunny 81 27.2 54 12.2 39 39 SW 8 13 30.24 1024 10 16 0.00 0.00
1:53 pm 13:53 Sunny 83 28.3 55 12.8 38 38 VRB 6 9 30.21 1023 10 16 0.00 0.00
2:53 pm 14:53 Sunny 84 28.9 53 11.7 34 34 SW 10 17 30.19 1023 10 16 0.00 0.00
3:53 pm 15:53 Sunny 85 29.4 52 11.1 32 32 SW 10 17 30.17 1022 10 16 0.00 0.00
4:53 pm 16:53 Sunny 85 29.4 53 11.7 33 33 VRB 6 9 30.15 1021 10 16 0.00 0.00
5:53 pm 17:53 Sunny 85 29.4 52 11.1 32 32 undefined N/A 30.13 1020 10 16 0.00 0.00
6:53 pm 18:53 Sunny 84 28.9 52 11.1 33 33 S 12 19 30.10 1019 10 16 0.00 0.00
7:53 pm 19:53 Sunny 81 27.2 52 11.1 37 37 SSE 8 13 30.10 1019 10 16 0.00 0.00
8:53 pm 20:53 Clear 79 26.1 50 10 36 36 S 5 7 30.11 1020 10 16 0.00 0.00
9:53 pm 21:53 Clear 75 23.9 51 10.6 43 43 Calm 30.11 1020 10 16 0.00 0.00
10:53 pm 22:53 Clear 68 20 52 11.1 57 57 Calm 30.11 1020 10 16 0.00 0.00
11:53 pm 23:53 Clear 66 18.9 53 11.7 63 63 Calm 30.11 1020 10 16 0.00 0.00

Powered by AerisWeather